Location: Decatur(IL)
(39.8400°N, 88.9550°W)
Time: 01:16:07
(UTC-05:00)

Cosmos 1953 - Visible Passes

Search period start: 21 August 2014 00:00
Search period end: 31 August 2014 00:00
Orbit: 550 x 571 km, 82.5° (Epoch: 20 August)

Date Brightness Start Highest point End Pass type
(mag) Time Alt. Az. Time Alt. Az. Time Alt. Az.
21 Aug 5.7 00:39:48 11° N 00:39:48 11° N 00:39:57 10° N visible
22 Aug 5.7 00:38:48 10° NNW 00:38:48 10° NNW 00:38:50 10° NNW visible
29 Aug 5.4 22:54:29 10° NNE 22:54:29 10° NNE 22:54:30 10° NNE visible
30 Aug 5.4 22:53:22 11° N 22:53:22 11° N 22:53:30 10° N visible
